Terminal Aerodrome Forecast
Issued by NWS Riverton, WY

Home | Current Version | Previous Version | Text Only | Print | Product List | Glossary On
Versions: 1 2 3 4 5 6 7 8 9 10 11 12 13 14 15 16 17
000
FTUS45 KRIW 152327
TAFRIW
TAF
KRIW 152327Z 1600/1624 21005KT P6SM BKN200
     FM160200 30009KT P6SM BKN150
     FM161000 02007KT P6SM VCSH SCT030 BKN060
     FM161400 34009KT 2SM -SN SCT004 OVC012
     FM162000 04015G25KT 4SM -SN SCT008 OVC020=

USA.gov is the U.S. government's official web portal to all federal, state and local government web resources and services.